KKP2254 YBMK-YSSY

Flight info

Callsign KKP2254
Flight time N/A
Altitude 39000
Route MUNAR DCT MAGRA H652 BOREE
Aircraft B38M/M-SDE1FGHILORVWXY/HB1

Departure

Time 2026-05-04 05:21
Airport Mackay Airport (YBMK)

Arrival

Time N/A
Airport Sydney Kingsford Smith International Airport (YSSY)
Time Latitude Longitude Altitude Speed Heading
2026-05-04 04:47 -21.17571 149.18250 28 ft 0 kts 287°
2026-05-04 05:16 -21.17570 149.18246 28 ft 3 kts 292°
2026-05-04 05:16 -21.17563 149.18245 28 ft 4 kts 34°
2026-05-04 05:17 -21.17509 149.18262 28 ft 14 kts 335°
2026-05-04 05:17 -21.17435 149.18263 28 ft 8 kts 58°
2026-05-04 05:17 -21.17400 149.18326 27 ft 11 kts 58°
2026-05-04 05:17 -21.17352 149.18403 27 ft 14 kts 46°
2026-05-04 05:18 -21.17281 149.18384 28 ft 11 kts 326°
2026-05-04 05:18 -21.17210 149.18349 27 ft 12 kts 326°
2026-05-04 05:18 -21.17130 149.18293 27 ft 15 kts 330°
2026-05-04 05:18 -21.17033 149.18233 27 ft 17 kts 326°
2026-05-04 05:19 -21.16927 149.18155 27 ft 19 kts 331°
2026-05-04 05:19 -21.16802 149.18073 29 ft 22 kts 328°
2026-05-04 05:19 -21.16669 149.17982 27 ft 24 kts 328°
2026-05-04 05:19 -21.16524 149.17884 27 ft 26 kts 329°
2026-05-04 05:20 -21.16384 149.17770 28 ft 17 kts 300°
2026-05-04 05:20 -21.16355 149.17755 28 ft 3 kts 84°
2026-05-04 05:20 -21.16394 149.17797 28 ft 4 kts 148°
2026-05-04 05:20 -21.16395 149.17797 28 ft 0 kts 148°
2026-05-04 05:21 -21.16487 149.17859 27 ft 55 kts 148°
2026-05-04 05:21 -21.17065 149.18250 30 ft 138 kts 146°
2026-05-04 05:21 -21.17908 149.18796 261 ft 153 kts 147°
2026-05-04 05:21 -21.18834 149.19409 1125 ft 161 kts 146°
2026-05-04 05:22 -21.19797 149.20064 2187 ft 163 kts 143°
2026-05-04 05:22 -21.20754 149.20741 3053 ft 173 kts 143°
2026-05-04 05:22 -21.21828 149.21505 3612 ft 199 kts 144°
2026-05-04 05:22 -21.23091 149.22348 4137 ft 231 kts 153°
2026-05-04 05:23 -21.24714 149.22817 4908 ft 252 kts 166°
2026-05-04 05:23 -21.26481 149.23226 5726 ft 268 kts 165°
2026-05-04 05:23 -21.28315 149.23646 5964 ft 270 kts 166°
2026-05-04 05:23 -21.30155 149.24059 5985 ft 269 kts 166°
2026-05-04 05:24 -21.31990 149.24467 5995 ft 269 kts 166°
2026-05-04 05:24 -21.33825 149.24875 6014 ft 270 kts 166°
2026-05-04 05:24 -21.35665 149.25281 6003 ft 269 kts 166°
2026-05-04 05:24 -21.37501 149.25687 6004 ft 269 kts 166°
2026-05-04 05:25 -21.39337 149.26093 6010 ft 269 kts 166°
2026-05-04 05:25 -21.41172 149.26498 5993 ft 269 kts 166°
2026-05-04 05:25 -21.43004 149.26903 6015 ft 269 kts 166°
2026-05-04 05:25 -21.44819 149.27304 5992 ft 269 kts 166°
2026-05-04 05:26 -21.46650 149.27710 6004 ft 269 kts 166°
2026-05-04 05:26 -21.48486 149.28116 6001 ft 270 kts 166°
2026-05-04 05:26 -21.50338 149.28443 6002 ft 270 kts 173°
2026-05-04 05:26 -21.52216 149.28596 6017 ft 271 kts 173°
2026-05-04 05:27 -21.54097 149.28757 6010 ft 271 kts 173°
2026-05-04 05:28 -21.67230 149.30014 6440 ft 276 kts 172°
2026-05-04 05:29 -21.69190 149.30207 7290 ft 292 kts 172°
2026-05-04 05:29 -21.71283 149.30412 7977 ft 311 kts 173°
2026-05-04 05:29 -21.73458 149.30625 8795 ft 324 kts 173°
2026-05-04 05:29 -21.75739 149.30848 9685 ft 333 kts 173°
2026-05-04 05:31 -21.93055 149.32548 15157 ft 375 kts 176°
2026-05-04 05:31 -21.95666 149.32804 15850 ft 379 kts 176°
2026-05-04 05:32 -21.98304 149.33064 16525 ft 382 kts 176°
2026-05-04 05:32 -22.00970 149.33326 17180 ft 387 kts 176°
2026-05-04 05:32 -22.03664 149.33591 17806 ft 391 kts 177°
2026-05-04 05:33 -22.09103 149.34127 18922 ft 399 kts 177°
2026-05-04 05:33 -22.11878 149.34401 19440 ft 402 kts 177°
2026-05-04 05:33 -22.14673 149.34675 19985 ft 405 kts 178°
2026-05-04 05:33 -22.17486 149.34953 20500 ft 408 kts 178°
2026-05-04 05:34 -22.20328 149.35234 21022 ft 412 kts 178°
2026-05-04 05:34 -22.23195 149.35517 21549 ft 415 kts 178°
2026-05-04 05:34 -22.26082 149.35802 22058 ft 418 kts 178°
2026-05-04 05:34 -22.28991 149.36090 22571 ft 421 kts 178°
2026-05-04 05:35 -22.31928 149.36380 23051 ft 425 kts 178°
2026-05-04 05:35 -22.34890 149.36673 23555 ft 428 kts 178°
2026-05-04 05:35 -22.37869 149.36967 23965 ft 431 kts 179°
2026-05-04 05:35 -22.39856 149.37164 24237 ft 433 kts 179°
2026-05-04 05:36 -22.43847 149.37459 24787 ft 435 kts 182°
2026-05-04 05:36 -22.46875 149.37587 25197 ft 438 kts 182°
2026-05-04 05:36 -22.49926 149.37730 25640 ft 439 kts 182°
2026-05-04 05:36 -22.52953 149.37877 26353 ft 434 kts 182°
2026-05-04 05:37 -22.55968 149.38024 26884 ft 434 kts 182°
2026-05-04 05:37 -22.58997 149.38173 27287 ft 437 kts 182°
2026-05-04 05:37 -22.62044 149.38322 27693 ft 439 kts 182°
2026-05-04 05:38 -22.67150 149.38574 28369 ft 444 kts 182°
2026-05-04 05:38 -22.70245 149.38727 28760 ft 447 kts 183°
2026-05-04 05:38 -22.73364 149.38881 29149 ft 450 kts 183°
2026-05-04 05:38 -22.76497 149.39035 29535 ft 453 kts 183°
2026-05-04 05:39 -22.79651 149.39190 29933 ft 455 kts 183°
2026-05-04 05:39 -22.86022 149.39505 30577 ft 460 kts 183°
2026-05-04 05:39 -22.89225 149.39664 30906 ft 462 kts 183°
2026-05-04 05:40 -22.95679 149.39983 31533 ft 466 kts 184°
2026-05-04 05:40 -22.98933 149.40144 31847 ft 468 kts 184°
2026-05-04 05:40 -23.02191 149.40305 32164 ft 470 kts 184°
2026-05-04 05:41 -23.05473 149.40467 32475 ft 473 kts 184°
2026-05-04 05:41 -23.08765 149.40630 32781 ft 475 kts 184°
2026-05-04 05:41 -23.12075 149.40794 33074 ft 477 kts 184°
2026-05-04 05:41 -23.15393 149.40959 33370 ft 479 kts 184°
2026-05-04 05:42 -23.18728 149.41124 33675 ft 481 kts 184°
2026-05-04 05:42 -23.22031 149.41288 33994 ft 482 kts 184°
2026-05-04 05:42 -23.25386 149.41455 34331 ft 482 kts 184°
2026-05-04 05:42 -23.28732 149.41621 34678 ft 481 kts 185°
2026-05-04 05:43 -23.32072 149.41787 35025 ft 481 kts 185°
2026-05-04 05:43 -23.35421 149.41954 35380 ft 480 kts 185°
2026-05-04 05:43 -23.38754 149.42120 35763 ft 478 kts 185°
2026-05-04 05:45 -23.61902 149.43274 37923 ft 474 kts 186°
2026-05-04 05:45 -23.65194 149.43439 38202 ft 473 kts 186°
2026-05-04 05:47 -23.88091 149.44585 39028 ft 469 kts 187°
2026-05-04 05:47 -23.94624 149.44913 39032 ft 470 kts 187°
2026-05-04 05:48 -24.01157 149.45241 39035 ft 471 kts 187°
2026-05-04 05:48 -24.07702 149.45570 39029 ft 471 kts 187°
2026-05-04 05:49 -24.14254 149.45900 39031 ft 472 kts 187°
2026-05-04 05:49 -24.20812 149.46231 39031 ft 472 kts 187°
2026-05-04 05:51 -24.47126 149.47560 39034 ft 474 kts 187°
2026-05-04 05:52 -24.53685 149.47892 39033 ft 474 kts 187°
2026-05-04 05:52 -24.60279 149.48226 39033 ft 475 kts 187°
2026-05-04 05:54 -24.86852 149.49577 39028 ft 480 kts 187°
2026-05-04 05:55 -24.93526 149.49917 39032 ft 480 kts 187°
2026-05-04 05:55 -25.00212 149.50258 39034 ft 481 kts 187°
2026-05-04 05:56 -25.06895 149.50600 39030 ft 481 kts 187°
2026-05-04 05:56 -25.13585 149.50942 39036 ft 481 kts 187°
2026-05-04 05:57 -25.20223 149.51281 39030 ft 481 kts 187°
2026-05-04 05:57 -25.26915 149.51623 39037 ft 482 kts 187°
2026-05-04 05:58 -25.33620 149.51965 39034 ft 482 kts 187°
2026-05-04 05:58 -25.40326 149.52308 39028 ft 482 kts 188°
2026-05-04 05:59 -25.47024 149.52651 39032 ft 482 kts 187°
2026-05-04 05:59 -25.53736 149.52995 39033 ft 483 kts 188°
2026-05-04 06:00 -25.60448 149.53339 39027 ft 483 kts 188°
2026-05-04 06:00 -25.67164 149.53684 39028 ft 483 kts 188°
2026-05-04 06:01 -25.73843 149.54027 39029 ft 483 kts 188°
2026-05-04 06:03 -26.00750 149.55414 39033 ft 484 kts 188°
2026-05-04 06:05 -26.31069 149.56984 39036 ft 485 kts 188°
2026-05-04 06:06 -26.37773 149.57333 39038 ft 485 kts 188°
2026-05-04 06:06 -26.44520 149.57684 39035 ft 485 kts 188°
2026-05-04 06:07 -26.51263 149.58035 39041 ft 485 kts 188°
2026-05-04 06:07 -26.58011 149.58387 39034 ft 485 kts 188°
2026-05-04 06:08 -26.64763 149.58740 39036 ft 486 kts 188°
2026-05-04 06:08 -26.71516 149.59092 39034 ft 486 kts 188°
2026-05-04 06:09 -26.78271 149.59446 39032 ft 486 kts 188°
2026-05-04 06:11 -27.05307 149.60865 39032 ft 487 kts 188°
2026-05-04 06:13 -27.32338 149.62291 39037 ft 487 kts 188°
2026-05-04 06:14 -27.56047 149.63547 39033 ft 487 kts 189°
2026-05-04 06:15 -27.62775 149.63905 39035 ft 487 kts 189°
2026-05-04 06:15 -27.69556 149.64265 39034 ft 488 kts 189°
2026-05-04 06:16 -27.76345 149.64627 39031 ft 488 kts 189°